{"data":{"norad_id":64595,"epoch":"2026-09-20T23:00:07.404192Z","epoch_age_seconds":91987,"freshness":"FRESH","line1":"1 64595U 25137B   26263.95841903  .00016150  00000+0  48804-3 0  9994","line2":"2 64595  53.1552 145.2412 0000258  34.8767 325.2253 15.34401668 70671","mean_motion":15.34401668,"eccentricity":2.58e-5,"inclination_deg":53.1552,"raan_deg":145.2412,"arg_perigee_deg":34.8767,"mean_anomaly_deg":325.2253,"bstar":0.00048804,"rev_number":7067,"period_min":93.847656062376,"perigee_km":462.52178901379,"apogee_km":462.87477611437,"semimajor_km":6840.8352825641,"source":"CELESTRAK","updated_at":"2026-09-21T09:00:35.363719Z"}}